owner,sensor,date,latitude,longitude,vertical_datum,wind_speed,wind_to_direction,wind_speed_of_gust,qcFlag 
WAVCIS,ioos:station:WAVCIS:CSI09:1,2008-08-01T00:00:00Z,29.1015,-89.9782,0.0,4.845,254.0,,'11111222,11111222,99999999' 
WAVCIS,ioos:station:WAVCIS:CSI09:1,2008-08-01T01:00:00Z,29.1015,-89.9782,0.0,3.426,232.0,,'11111222,11111222,99999999' 
WAVCIS,ioos:station:WAVCIS:CSI09:1,2008-08-01T02:00:00Z,29.1015,-89.9782,0.0,4.395,226.0,,'11111222,11111222,99999999' 
WAVCIS,ioos:station:WAVCIS:CSI09:1,2008-08-01T03:00:00Z,29.1015,-89.9782,0.0,5.129,240.0,,'11111222,11111222,99999999' 
WAVCIS,ioos:station:WAVCIS:CSI09:1,2008-08-01T04:00:00Z,29.1015,-89.9782,0.0,3.812,268.0,,'11111222,11111222,99999999' 
WAVCIS,ioos:station:WAVCIS:CSI09:1,2008-08-01T05:00:00Z,29.1015,-89.9782,0.0,2.696,241.0,,'11111222,11111222,99999999' 
WAVCIS,ioos:station:WAVCIS:CSI09:1,2008-08-01T06:00:00Z,29.1015,-89.9782,0.0,3.03,231.0,,'11111222,11111222,99999999' 
WAVCIS,ioos:station:WAVCIS:CSI09:1,2008-08-01T07:00:00Z,29.1015,-89.9782,0.0,3.091,210.0,,'11111222,11111222,99999999' 
WAVCIS,ioos:station:WAVCIS:CSI09:1,2008-08-01T08:00:00Z,29.1015,-89.9782,0.0,4.482,215.0,,'11111222,11111222,99999999' 
WAVCIS,ioos:station:WAVCIS:CSI09:1,2008-08-01T09:00:00Z,29.1015,-89.9782,0.0,4.112,210.0,,'11111222,11111222,99999999' 
WAVCIS,ioos:station:WAVCIS:CSI09:1,2008-08-01T10:00:00Z,29.1015,-89.9782,0.0,7.28,230.0,,'11111222,11111222,99999999' 
WAVCIS,ioos:station:WAVCIS:CSI09:1,2008-08-01T11:00:00Z,29.1015,-89.9782,0.0,6.52,251.0,,'11111222,11111222,99999999' 
WAVCIS,ioos:station:WAVCIS:CSI09:1,2008-08-01T12:00:00Z,29.1015,-89.9782,0.0,5.601,259.0,,'11111222,11111222,99999999' 
WAVCIS,ioos:station:WAVCIS:CSI09:1,2008-08-01T13:00:00Z,29.1015,-89.9782,0.0,5.96,262.0,,'11111222,11111222,99999999' 
WAVCIS,ioos:station:WAVCIS:CSI09:1,2008-08-01T14:00:00Z,29.1015,-89.9782,0.0,7.97,262.0,,'11111222,11111222,99999999' 
WAVCIS,ioos:station:WAVCIS:CSI09:1,2008-08-01T15:00:00Z,29.1015,-89.9782,0.0,3.617,186.0,,'11111222,11111222,99999999' 
WAVCIS,ioos:station:WAVCIS:CSI09:1,2008-08-01T16:00:00Z,29.1015,-89.9782,0.0,5.778,169.0,,'11111222,11111222,99999999' 
WAVCIS,ioos:station:WAVCIS:CSI09:1,2008-08-01T17:00:00Z,29.1015,-89.9782,0.0,4.355,214.0,,'11111222,11111222,99999999' 
WAVCIS,ioos:station:WAVCIS:CSI09:1,2008-08-01T18:00:00Z,29.1015,-89.9782,0.0,3.181,180.0,,'11111222,11111222,99999999' 
WAVCIS,ioos:station:WAVCIS:CSI09:1,2008-08-01T19:00:00Z,29.1015,-89.9782,0.0,6.73,45.0,,'11111222,11111222,99999999' 
WAVCIS,ioos:station:WAVCIS:CSI09:1,2008-08-01T20:00:00Z,29.1015,-89.9782,0.0,4.32,349.0,,'11111222,11111222,99999999' 
WAVCIS,ioos:station:WAVCIS:CSI09:1,2008-08-01T21:00:00Z,29.1015,-89.9782,0.0,1.481,298.0,,'11111222,11111222,99999999' 
WAVCIS,ioos:station:WAVCIS:CSI09:1,2008-08-01T22:00:00Z,29.1015,-89.9782,0.0,1.932,232.0,,'11111222,11111222,99999999' 
WAVCIS,ioos:station:WAVCIS:CSI09:1,2008-08-01T23:00:00Z,29.1015,-89.9782,0.0,1.768,166.0,,'11111222,11111222,99999999' 
WAVCIS,ioos:station:WAVCIS:CSI09:1,2008-08-02T00:00:00Z,29.1015,-89.9782,0.0,3.374,175.0,,'11111222,11111222,99999999' 
WAVCIS,ioos:station:WAVCIS:CSI09:1,2008-08-02T01:00:00Z,29.1015,-89.9782,0.0,1.627,158.0,,'11111222,11111222,99999999' 
WAVCIS,ioos:station:WAVCIS:CSI09:1,2008-08-02T02:00:00Z,29.1015,-89.9782,0.0,2.98,174.0,,'11111222,11111222,99999999' 
WAVCIS,ioos:station:WAVCIS:CSI09:1,2008-08-02T03:00:00Z,29.1015,-89.9782,0.0,3.316,204.0,,'11111222,11111222,99999999' 
WAVCIS,ioos:station:WAVCIS:CSI09:1,2008-08-02T04:00:00Z,29.1015,-89.9782,0.0,3.158,210.0,,'11111222,11111222,99999999' 
WAVCIS,ioos:station:WAVCIS:CSI09:1,2008-08-02T05:00:00Z,29.1015,-89.9782,0.0,3.178,207.0,,'11111222,11111222,99999999' 
WAVCIS,ioos:station:WAVCIS:CSI09:1,2008-08-02T06:00:00Z,29.1015,-89.9782,0.0,3.326,210.0,,'11111222,11111222,99999999' 
WAVCIS,ioos:station:WAVCIS:CSI09:1,2008-08-02T07:00:00Z,29.1015,-89.9782,0.0,3.497,209.0,,'11111222,11111222,99999999' 
WAVCIS,ioos:station:WAVCIS:CSI09:1,2008-08-02T08:00:00Z,29.1015,-89.9782,0.0,3.902,188.0,,'11111222,11111222,99999999' 
WAVCIS,ioos:station:WAVCIS:CSI09:1,2008-08-02T09:00:00Z,29.1015,-89.9782,0.0,3.58,254.0,,'11111222,11111222,99999999' 
WAVCIS,ioos:station:WAVCIS:CSI09:1,2008-08-02T10:00:00Z,29.1015,-89.9782,0.0,1.915,193.0,,'11111222,11111222,99999999' 
WAVCIS,ioos:station:WAVCIS:CSI09:1,2008-08-02T11:00:00Z,29.1015,-89.9782,0.0,5.716,28.0,,'11111222,11111222,99999999' 
WAVCIS,ioos:station:WAVCIS:CSI09:1,2008-08-02T12:00:00Z,29.1015,-89.9782,0.0,1.856,194.0,,'11111222,11111222,99999999' 
WAVCIS,ioos:station:WAVCIS:CSI09:1,2008-08-02T13:00:00Z,29.1015,-89.9782,0.0,1.057,161.0,,'11111222,11111222,99999999' 
WAVCIS,ioos:station:WAVCIS:CSI09:1,2008-08-02T14:00:00Z,29.1015,-89.9782,0.0,7.49,245.0,,'11111222,11111222,99999999' 
WAVCIS,ioos:station:WAVCIS:CSI09:1,2008-08-02T15:00:00Z,29.1015,-89.9782,0.0,4.912,243.0,,'11111222,11111222,99999999' 
WAVCIS,ioos:station:WAVCIS:CSI09:1,2008-08-02T16:00:00Z,29.1015,-89.9782,0.0,8.29,251.0,,'11111222,11111222,99999999' 
WAVCIS,ioos:station:WAVCIS:CSI09:1,2008-08-02T17:00:00Z,29.1015,-89.9782,0.0,7.48,279.0,,'11111222,11111222,99999999' 
WAVCIS,ioos:station:WAVCIS:CSI09:1,2008-08-02T18:00:00Z,29.1015,-89.9782,0.0,5.955,268.0,,'11111222,11111222,99999999' 
WAVCIS,ioos:station:WAVCIS:CSI09:1,2008-08-02T19:00:00Z,29.1015,-89.9782,0.0,7.13,251.0,,'11111222,11111222,99999999' 
WAVCIS,ioos:station:WAVCIS:CSI09:1,2008-08-02T20:00:00Z,29.1015,-89.9782,0.0,7.02,251.0,,'11111222,11111222,99999999' 
WAVCIS,ioos:station:WAVCIS:CSI09:1,2008-08-02T21:00:00Z,29.1015,-89.9782,0.0,6.436,244.0,,'11111222,11111222,99999999' 
WAVCIS,ioos:station:WAVCIS:CSI09:1,2008-08-02T22:00:00Z,29.1015,-89.9782,0.0,7.89,242.0,,'11111222,11111222,99999999' 
WAVCIS,ioos:station:WAVCIS:CSI09:1,2008-08-02T23:00:00Z,29.1015,-89.9782,0.0,8.27,240.0,,'11111222,11111222,99999999' 
WAVCIS,ioos:station:WAVCIS:CSI09:1,2008-08-03T00:00:00Z,29.1015,-89.9782,0.0,7.54,241.0,,'11111222,11111222,99999999' 
WAVCIS,ioos:station:WAVCIS:CSI09:1,2008-08-03T01:00:00Z,29.1015,-89.9782,0.0,7.69,245.0,,'11111222,11111222,99999999' 
WAVCIS,ioos:station:WAVCIS:CSI09:1,2008-08-03T02:00:00Z,29.1015,-89.9782,0.0,8.42,253.0,,'11111222,11111222,99999999' 
WAVCIS,ioos:station:WAVCIS:CSI09:1,2008-08-03T03:00:00Z,29.1015,-89.9782,0.0,7.9,249.0,,'11111222,11111222,99999999' 
WAVCIS,ioos:station:WAVCIS:CSI09:1,2008-08-03T04:00:00Z,29.1015,-89.9782,0.0,7.6,258.0,,'11111222,11111222,99999999' 
WAVCIS,ioos:station:WAVCIS:CSI09:1,2008-08-03T05:00:00Z,29.1015,-89.9782,0.0,7.73,272.0,,'11111222,11111222,99999999' 
WAVCIS,ioos:station:WAVCIS:CSI09:1,2008-08-03T06:00:00Z,29.1015,-89.9782,0.0,7.66,263.0,,'11111222,11111222,99999999' 
WAVCIS,ioos:station:WAVCIS:CSI09:1,2008-08-03T07:00:00Z,29.1015,-89.9782,0.0,6.887,266.0,,'11111222,11111222,99999999' 
WAVCIS,ioos:station:WAVCIS:CSI09:1,2008-08-03T08:00:00Z,29.1015,-89.9782,0.0,6.546,270.0,,'11111222,11111222,99999999' 
WAVCIS,ioos:station:WAVCIS:CSI09:1,2008-08-03T09:00:00Z,29.1015,-89.9782,0.0,7.7,270.0,,'11111222,11111222,99999999' 
WAVCIS,ioos:station:WAVCIS:CSI09:1,2008-08-03T10:00:00Z,29.1015,-89.9782,0.0,7.38,273.0,,'11111222,11111222,99999999' 
WAVCIS,ioos:station:WAVCIS:CSI09:1,2008-08-03T11:00:00Z,29.1015,-89.9782,0.0,7.97,275.0,,'11111222,11111222,99999999' 
WAVCIS,ioos:station:WAVCIS:CSI09:1,2008-08-03T12:00:00Z,29.1015,-89.9782,0.0,7.87,287.0,,'11111222,11111222,99999999' 
WAVCIS,ioos:station:WAVCIS:CSI09:1,2008-08-03T13:00:00Z,29.1015,-89.9782,0.0,6.657,294.0,,'11111222,11111222,99999999' 
WAVCIS,ioos:station:WAVCIS:CSI09:1,2008-08-03T14:00:00Z,29.1015,-89.9782,0.0,5.774,331.0,,'11111222,11111222,99999999' 
WAVCIS,ioos:station:WAVCIS:CSI09:1,2008-08-03T15:00:00Z,29.1015,-89.9782,0.0,4.273,345.0,,'11111222,11111222,99999999' 
WAVCIS,ioos:station:WAVCIS:CSI09:1,2008-08-03T16:00:00Z,29.1015,-89.9782,0.0,4.246,18.0,,'11111222,11111222,99999999' 
WAVCIS,ioos:station:WAVCIS:CSI09:1,2008-08-03T17:00:00Z,29.1015,-89.9782,0.0,2.525,53.0,,'11111222,11111222,99999999' 
WAVCIS,ioos:station:WAVCIS:CSI09:1,2008-08-03T18:00:00Z,29.1015,-89.9782,0.0,3.316,149.0,,'11111222,11111222,99999999' 
WAVCIS,ioos:station:WAVCIS:CSI09:1,2008-08-03T19:00:00Z,29.1015,-89.9782,0.0,1.469,173.0,,'11111222,11111222,99999999' 
WAVCIS,ioos:station:WAVCIS:CSI09:1,2008-08-03T20:00:00Z,29.1015,-89.9782,0.0,1.029,133.0,,'11111222,11111222,99999999' 
WAVCIS,ioos:station:WAVCIS:CSI09:1,2008-08-03T21:00:00Z,29.1015,-89.9782,0.0,1.475,284.0,,'11111222,11111222,99999999' 
WAVCIS,ioos:station:WAVCIS:CSI09:1,2008-08-03T22:00:00Z,29.1015,-89.9782,0.0,3.559,333.0,,'11111222,11111222,99999999' 
WAVCIS,ioos:station:WAVCIS:CSI09:1,2008-08-03T23:00:00Z,29.1015,-89.9782,0.0,7.95,61.0,,'11111222,11111222,99999999' 
WAVCIS,ioos:station:WAVCIS:CSI09:1,2008-08-04T00:00:00Z,29.1015,-89.9782,0.0,9.17,51.0,,'11111222,11111222,99999999' 
WAVCIS,ioos:station:WAVCIS:CSI09:1,2008-08-04T01:00:00Z,29.1015,-89.9782,0.0,9.26,60.0,,'11111222,11111222,99999999' 
WAVCIS,ioos:station:WAVCIS:CSI09:1,2008-08-04T02:00:00Z,29.1015,-89.9782,0.0,9.91,66.0,,'11111222,11111222,99999999' 
WAVCIS,ioos:station:WAVCIS:CSI09:1,2008-08-04T03:00:00Z,29.1015,-89.9782,0.0,10.5,61.0,,'11111222,11111222,99999999' 
WAVCIS,ioos:station:WAVCIS:CSI09:1,2008-08-04T04:00:00Z,29.1015,-89.9782,0.0,11.43,68.0,,'11111222,11111222,99999999' 
WAVCIS,ioos:station:WAVCIS:CSI09:1,2008-08-04T05:00:00Z,29.1015,-89.9782,0.0,12.44,61.0,,'11111222,11111222,99999999' 
WAVCIS,ioos:station:WAVCIS:CSI09:1,2008-08-04T06:00:00Z,29.1015,-89.9782,0.0,12.14,64.0,,'11111222,11111222,99999999' 
WAVCIS,ioos:station:WAVCIS:CSI09:1,2008-08-04T07:00:00Z,29.1015,-89.9782,0.0,13.3,69.0,,'11111222,11111222,99999999' 
WAVCIS,ioos:station:WAVCIS:CSI09:1,2008-08-04T08:00:00Z,29.1015,-89.9782,0.0,11.68,90.0,,'11111222,11111222,99999999' 
WAVCIS,ioos:station:WAVCIS:CSI09:1,2008-08-04T09:00:00Z,29.1015,-89.9782,0.0,14.84,85.0,,'11111222,11111222,99999999' 
WAVCIS,ioos:station:WAVCIS:CSI09:1,2008-08-04T10:00:00Z,29.1015,-89.9782,0.0,14.03,91.0,,'11111222,11111222,99999999' 
WAVCIS,ioos:station:WAVCIS:CSI09:1,2008-08-04T11:00:00Z,29.1015,-89.9782,0.0,10.77,97.0,,'11111222,11111222,99999999' 
WAVCIS,ioos:station:WAVCIS:CSI09:1,2008-08-04T12:00:00Z,29.1015,-89.9782,0.0,9.62,100.0,,'11111222,11111222,99999999' 
WAVCIS,ioos:station:WAVCIS:CSI09:1,2008-08-04T13:00:00Z,29.1015,-89.9782,0.0,11.39,112.0,,'11111222,11111222,99999999' 
WAVCIS,ioos:station:WAVCIS:CSI09:1,2008-08-04T14:00:00Z,29.1015,-89.9782,0.0,10.42,88.0,,'11111222,11111222,99999999' 
WAVCIS,ioos:station:WAVCIS:CSI09:1,2008-08-04T15:00:00Z,29.1015,-89.9782,0.0,13.13,126.0,,'11111222,11111222,99999999' 
WAVCIS,ioos:station:WAVCIS:CSI09:1,2008-08-04T16:00:00Z,29.1015,-89.9782,0.0,13.61,132.0,,'11111222,11111222,99999999' 
WAVCIS,ioos:station:WAVCIS:CSI09:1,2008-08-04T17:00:00Z,29.1015,-89.9782,0.0,14.33,129.0,,'11111222,11111222,99999999' 
WAVCIS,ioos:station:WAVCIS:CSI09:1,2008-08-04T18:00:00Z,29.1015,-89.9782,0.0,15.09,133.0,,'11111222,11111222,99999999' 
WAVCIS,ioos:station:WAVCIS:CSI09:1,2008-08-04T19:00:00Z,29.1015,-89.9782,0.0,14.83,136.0,,'11111222,11111222,99999999' 
WAVCIS,ioos:station:WAVCIS:CSI09:1,2008-08-04T20:00:00Z,29.1015,-89.9782,0.0,13.13,141.0,,'11111222,11111222,99999999' 
WAVCIS,ioos:station:WAVCIS:CSI09:1,2008-08-04T21:00:00Z,29.1015,-89.9782,0.0,13.92,147.0,,'11111222,11111222,99999999' 
WAVCIS,ioos:station:WAVCIS:CSI09:1,2008-08-04T22:00:00Z,29.1015,-89.9782,0.0,12.09,138.0,,'11111222,11111222,99999999' 
WAVCIS,ioos:station:WAVCIS:CSI09:1,2008-08-04T23:00:00Z,29.1015,-89.9782,0.0,13.36,137.0,,'11111222,11111222,99999999' 
WAVCIS,ioos:station:WAVCIS:CSI09:1,2008-08-05T00:00:00Z,29.1015,-89.9782,0.0,12.1,146.0,,'11111222,11111222,99999999' 
WAVCIS,ioos:station:WAVCIS:CSI09:1,2008-08-05T01:00:00Z,29.1015,-89.9782,0.0,11.69,137.0,,'11111222,11111222,99999999' 
WAVCIS,ioos:station:WAVCIS:CSI09:1,2008-08-05T02:00:00Z,29.1015,-89.9782,0.0,11.48,128.0,,'11111222,11111222,99999999' 
WAVCIS,ioos:station:WAVCIS:CSI09:1,2008-08-05T03:00:00Z,29.1015,-89.9782,0.0,11.23,125.0,,'11111222,11111222,99999999' 
WAVCIS,ioos:station:WAVCIS:CSI09:1,2008-08-05T04:00:00Z,29.1015,-89.9782,0.0,9.55,129.0,,'11111222,11111222,99999999' 
WAVCIS,ioos:station:WAVCIS:CSI09:1,2008-08-05T05:00:00Z,29.1015,-89.9782,0.0,10.17,127.0,,'11111222,11111222,99999999' 
WAVCIS,ioos:station:WAVCIS:CSI09:1,2008-08-05T06:00:00Z,29.1015,-89.9782,0.0,11.42,136.0,,'11111222,11111222,99999999' 
WAVCIS,ioos:station:WAVCIS:CSI09:1,2008-08-05T07:00:00Z,29.1015,-89.9782,0.0,11.34,136.0,,'11111222,11111222,99999999' 
WAVCIS,ioos:station:WAVCIS:CSI09:1,2008-08-05T08:00:00Z,29.1015,-89.9782,0.0,10.14,146.0,,'11111222,11111222,99999999' 
WAVCIS,ioos:station:WAVCIS:CSI09:1,2008-08-05T09:00:00Z,29.1015,-89.9782,0.0,9.27,143.0,,'11111222,11111222,99999999' 
WAVCIS,ioos:station:WAVCIS:CSI09:1,2008-08-05T10:00:00Z,29.1015,-89.9782,0.0,9.13,160.0,,'11111222,11111222,99999999' 
WAVCIS,ioos:station:WAVCIS:CSI09:1,2008-08-05T11:00:00Z,29.1015,-89.9782,0.0,9.69,161.0,,'11111222,11111222,99999999' 
WAVCIS,ioos:station:WAVCIS:CSI09:1,2008-08-05T12:00:00Z,29.1015,-89.9782,0.0,8.13,163.0,,'11111222,11111222,99999999' 
WAVCIS,ioos:station:WAVCIS:CSI09:1,2008-08-05T13:00:00Z,29.1015,-89.9782,0.0,8.22,160.0,,'11111222,11111222,99999999' 
WAVCIS,ioos:station:WAVCIS:CSI09:1,2008-08-05T14:00:00Z,29.1015,-89.9782,0.0,7.83,161.0,,'11111222,11111222,99999999' 
WAVCIS,ioos:station:WAVCIS:CSI09:1,2008-08-05T15:00:00Z,29.1015,-89.9782,0.0,7.76,167.0,,'11111222,11111222,99999999' 
WAVCIS,ioos:station:WAVCIS:CSI09:1,2008-08-05T16:00:00Z,29.1015,-89.9782,0.0,7.42,159.0,,'11111222,11111222,99999999' 
WAVCIS,ioos:station:WAVCIS:CSI09:1,2008-08-05T17:00:00Z,29.1015,-89.9782,0.0,6.539,158.0,,'11111222,11111222,99999999' 
WAVCIS,ioos:station:WAVCIS:CSI09:1,2008-08-05T18:00:00Z,29.1015,-89.9782,0.0,5.812,155.0,,'11111222,11111222,99999999' 
WAVCIS,ioos:station:WAVCIS:CSI09:1,2008-08-05T19:00:00Z,29.1015,-89.9782,0.0,6.558,157.0,,'11111222,11111222,99999999' 
WAVCIS,ioos:station:WAVCIS:CSI09:1,2008-08-05T20:00:00Z,29.1015,-89.9782,0.0,5.442,152.0,,'11111222,11111222,99999999' 
WAVCIS,ioos:station:WAVCIS:CSI09:1,2008-08-05T21:00:00Z,29.1015,-89.9782,0.0,5.277,143.0,,'11111222,11111222,99999999' 
WAVCIS,ioos:station:WAVCIS:CSI09:1,2008-08-05T22:00:00Z,29.1015,-89.9782,0.0,5.278,156.0,,'11111222,11111222,99999999' 
WAVCIS,ioos:station:WAVCIS:CSI09:1,2008-08-05T23:00:00Z,29.1015,-89.9782,0.0,4.625,149.0,,'11111222,11111222,99999999' 
WAVCIS,ioos:station:WAVCIS:CSI09:1,2008-08-06T00:00:00Z,29.1015,-89.9782,0.0,4.588,158.0,,'11111222,11111222,99999999' 
WAVCIS,ioos:station:WAVCIS:CSI09:1,2008-08-06T01:00:00Z,29.1015,-89.9782,0.0,4.713,150.0,,'11111222,11111222,99999999' 
WAVCIS,ioos:station:WAVCIS:CSI09:1,2008-08-06T02:00:00Z,29.1015,-89.9782,0.0,4.693,151.0,,'11111222,11111222,99999999' 
WAVCIS,ioos:station:WAVCIS:CSI09:1,2008-08-06T03:00:00Z,29.1015,-89.9782,0.0,5.392,138.0,,'11111222,11111222,99999999' 
WAVCIS,ioos:station:WAVCIS:CSI09:1,2008-08-06T04:00:00Z,29.1015,-89.9782,0.0,5.416,156.0,,'11111222,11111222,99999999' 
WAVCIS,ioos:station:WAVCIS:CSI09:1,2008-08-06T05:00:00Z,29.1015,-89.9782,0.0,5.534,159.0,,'11111222,11111222,99999999' 
WAVCIS,ioos:station:WAVCIS:CSI09:1,2008-08-06T06:00:00Z,29.1015,-89.9782,0.0,6.0,171.0,,'11111222,11111222,99999999' 
WAVCIS,ioos:station:WAVCIS:CSI09:1,2008-08-06T07:00:00Z,29.1015,-89.9782,0.0,5.395,172.0,,'11111222,11111222,99999999' 
WAVCIS,ioos:station:WAVCIS:CSI09:1,2008-08-06T08:00:00Z,29.1015,-89.9782,0.0,4.09,172.0,,'11111222,11111222,99999999' 
WAVCIS,ioos:station:WAVCIS:CSI09:1,2008-08-06T09:00:00Z,29.1015,-89.9782,0.0,2.498,187.0,,'11111222,11111222,99999999' 
WAVCIS,ioos:station:WAVCIS:CSI09:1,2008-08-06T10:00:00Z,29.1015,-89.9782,0.0,2.585,225.0,,'11111222,11111222,99999999' 
WAVCIS,ioos:station:WAVCIS:CSI09:1,2008-08-06T11:00:00Z,29.1015,-89.9782,0.0,2.109,227.0,,'11111222,11111222,99999999' 
WAVCIS,ioos:station:WAVCIS:CSI09:1,2008-08-06T12:00:00Z,29.1015,-89.9782,0.0,2.02,241.0,,'11111222,11111222,99999999' 
WAVCIS,ioos:station:WAVCIS:CSI09:1,2008-08-06T13:00:00Z,29.1015,-89.9782,0.0,1.858,264.0,,'11111222,11111222,99999999' 
WAVCIS,ioos:station:WAVCIS:CSI09:1,2008-08-06T14:00:00Z,29.1015,-89.9782,0.0,0.843,287.0,,'11111222,11111222,99999999' 
WAVCIS,ioos:station:WAVCIS:CSI09:1,2008-08-06T15:00:00Z,29.1015,-89.9782,0.0,1.362,343.0,,'11111222,11111222,99999999' 
WAVCIS,ioos:station:WAVCIS:CSI09:1,2008-08-06T16:00:00Z,29.1015,-89.9782,0.0,1.883,26.0,,'11111222,11111222,99999999' 
WAVCIS,ioos:station:WAVCIS:CSI09:1,2008-08-06T17:00:00Z,29.1015,-89.9782,0.0,1.496,58.0,,'11111222,11111222,99999999' 
WAVCIS,ioos:station:WAVCIS:CSI09:1,2008-08-06T18:00:00Z,29.1015,-89.9782,0.0,1.496,77.0,,'11111222,11111222,99999999' 
WAVCIS,ioos:station:WAVCIS:CSI09:1,2008-08-06T19:00:00Z,29.1015,-89.9782,0.0,1.285,129.0,,'11111222,11111222,99999999' 
WAVCIS,ioos:station:WAVCIS:CSI09:1,2008-08-06T20:00:00Z,29.1015,-89.9782,0.0,1.774,140.0,,'11111222,11111222,99999999' 
WAVCIS,ioos:station:WAVCIS:CSI09:1,2008-08-06T21:00:00Z,29.1015,-89.9782,0.0,2.445,159.0,,'11111222,11111222,99999999' 
WAVCIS,ioos:station:WAVCIS:CSI09:1,2008-08-06T22:00:00Z,29.1015,-89.9782,0.0,2.371,154.0,,'11111222,11111222,99999999' 
WAVCIS,ioos:station:WAVCIS:CSI09:1,2008-08-06T23:00:00Z,29.1015,-89.9782,0.0,2.333,194.0,,'11111222,11111222,99999999' 
WAVCIS,ioos:station:WAVCIS:CSI09:1,2008-08-07T00:00:00Z,29.1015,-89.9782,0.0,2.527,236.0,,'11111222,11111222,99999999' 
WAVCIS,ioos:station:WAVCIS:CSI09:1,2008-08-07T01:00:00Z,29.1015,-89.9782,0.0,3.456,249.0,,'11111222,11111222,99999999' 
WAVCIS,ioos:station:WAVCIS:CSI09:1,2008-08-07T02:00:00Z,29.1015,-89.9782,0.0,3.313,258.0,,'11111222,11111222,99999999' 
WAVCIS,ioos:station:WAVCIS:CSI09:1,2008-08-07T03:00:00Z,29.1015,-89.9782,0.0,2.967,245.0,,'11111222,11111222,99999999' 
WAVCIS,ioos:station:WAVCIS:CSI09:1,2008-08-07T04:00:00Z,29.1015,-89.9782,0.0,4.471,260.0,,'11111222,11111222,99999999' 
WAVCIS,ioos:station:WAVCIS:CSI09:1,2008-08-07T05:00:00Z,29.1015,-89.9782,0.0,4.535,257.0,,'11111222,11111222,99999999' 
WAVCIS,ioos:station:WAVCIS:CSI09:1,2008-08-07T06:00:00Z,29.1015,-89.9782,0.0,4.598,259.0,,'11111222,11111222,99999999' 
WAVCIS,ioos:station:WAVCIS:CSI09:1,2008-08-07T07:00:00Z,29.1015,-89.9782,0.0,4.943,276.0,,'11111222,11111222,99999999' 
WAVCIS,ioos:station:WAVCIS:CSI09:1,2008-08-07T08:00:00Z,29.1015,-89.9782,0.0,4.858,278.0,,'11111222,11111222,99999999' 
WAVCIS,ioos:station:WAVCIS:CSI09:1,2008-08-07T09:00:00Z,29.1015,-89.9782,0.0,5.201,279.0,,'11111222,11111222,99999999' 
WAVCIS,ioos:station:WAVCIS:CSI09:1,2008-08-07T10:00:00Z,29.1015,-89.9782,0.0,5.674,292.0,,'11111222,11111222,99999999' 
WAVCIS,ioos:station:WAVCIS:CSI09:1,2008-08-07T11:00:00Z,29.1015,-89.9782,0.0,5.421,301.0,,'11111222,11111222,99999999' 
WAVCIS,ioos:station:WAVCIS:CSI09:1,2008-08-07T12:00:00Z,29.1015,-89.9782,0.0,4.489,316.0,,'11111222,11111222,99999999' 
WAVCIS,ioos:station:WAVCIS:CSI09:1,2008-08-07T13:00:00Z,29.1015,-89.9782,0.0,5.863,305.0,,'11111222,11111222,99999999' 
WAVCIS,ioos:station:WAVCIS:CSI09:1,2008-08-07T14:00:00Z,29.1015,-89.9782,0.0,6.072,318.0,,'11111222,11111222,99999999' 
WAVCIS,ioos:station:WAVCIS:CSI09:1,2008-08-07T15:00:00Z,29.1015,-89.9782,0.0,6.024,329.0,,'11111222,11111222,99999999' 
WAVCIS,ioos:station:WAVCIS:CSI09:1,2008-08-07T16:00:00Z,29.1015,-89.9782,0.0,5.173,330.0,,'11111222,11111222,99999999' 
WAVCIS,ioos:station:WAVCIS:CSI09:1,2008-08-07T17:00:00Z,29.1015,-89.9782,0.0,3.709,333.0,,'11111222,11111222,99999999' 
WAVCIS,ioos:station:WAVCIS:CSI09:1,2008-08-07T18:00:00Z,29.1015,-89.9782,0.0,2.941,334.0,,'11111222,11111222,99999999' 
WAVCIS,ioos:station:WAVCIS:CSI09:1,2008-08-07T19:00:00Z,29.1015,-89.9782,0.0,1.595,295.0,,'11111222,11111222,99999999' 
WAVCIS,ioos:station:WAVCIS:CSI09:1,2008-08-07T20:00:00Z,29.1015,-89.9782,0.0,2.025,199.0,,'11111222,11111222,99999999' 
WAVCIS,ioos:station:WAVCIS:CSI09:1,2008-08-07T21:00:00Z,29.1015,-89.9782,0.0,4.306,233.0,,'11111222,11111222,99999999' 
WAVCIS,ioos:station:WAVCIS:CSI09:1,2008-08-07T22:00:00Z,29.1015,-89.9782,0.0,6.021,231.0,,'11111222,11111222,99999999' 
WAVCIS,ioos:station:WAVCIS:CSI09:1,2008-08-07T23:00:00Z,29.1015,-89.9782,0.0,7.07,234.0,,'11111222,11111222,99999999' 
WAVCIS,ioos:station:WAVCIS:CSI09:1,2008-08-08T00:00:00Z,29.1015,-89.9782,0.0,7.12,241.0,,'11111222,11111222,99999999' 
WAVCIS,ioos:station:WAVCIS:CSI09:1,2008-08-08T01:00:00Z,29.1015,-89.9782,0.0,6.978,241.0,,'11111222,11111222,99999999' 
WAVCIS,ioos:station:WAVCIS:CSI09:1,2008-08-08T02:00:00Z,29.1015,-89.9782,0.0,8.03,239.0,,'11111222,11111222,99999999' 
WAVCIS,ioos:station:WAVCIS:CSI09:1,2008-08-08T03:00:00Z,29.1015,-89.9782,0.0,7.94,252.0,,'11111222,11111222,99999999' 
WAVCIS,ioos:station:WAVCIS:CSI09:1,2008-08-08T04:00:00Z,29.1015,-89.9782,0.0,6.679,256.0,,'11111222,11111222,99999999' 
WAVCIS,ioos:station:WAVCIS:CSI09:1,2008-08-08T05:00:00Z,29.1015,-89.9782,0.0,7.09,252.0,,'11111222,11111222,99999999' 
WAVCIS,ioos:station:WAVCIS:CSI09:1,2008-08-08T06:00:00Z,29.1015,-89.9782,0.0,6.805,262.0,,'11111222,11111222,99999999' 
WAVCIS,ioos:station:WAVCIS:CSI09:1,2008-08-08T07:00:00Z,29.1015,-89.9782,0.0,3.863,289.0,,'11111222,11111222,99999999' 
WAVCIS,ioos:station:WAVCIS:CSI09:1,2008-08-08T08:00:00Z,29.1015,-89.9782,0.0,2.701,171.0,,'11111222,11111222,99999999' 
WAVCIS,ioos:station:WAVCIS:CSI09:1,2008-08-08T09:00:00Z,29.1015,-89.9782,0.0,2.589,267.0,,'11111222,11111222,99999999' 
WAVCIS,ioos:station:WAVCIS:CSI09:1,2008-08-08T10:00:00Z,29.1015,-89.9782,0.0,9.51,250.0,,'11111222,11111222,99999999' 
WAVCIS,ioos:station:WAVCIS:CSI09:1,2008-08-08T11:00:00Z,29.1015,-89.9782,0.0,8.67,269.0,,'11111222,11111222,99999999' 
WAVCIS,ioos:station:WAVCIS:CSI09:1,2008-08-08T12:00:00Z,29.1015,-89.9782,0.0,8.12,273.0,,'11111222,11111222,99999999' 
WAVCIS,ioos:station:WAVCIS:CSI09:1,2008-08-08T13:00:00Z,29.1015,-89.9782,0.0,10.17,299.0,,'11111222,11111222,99999999' 
WAVCIS,ioos:station:WAVCIS:CSI09:1,2008-08-08T14:00:00Z,29.1015,-89.9782,0.0,8.78,288.0,,'11111222,11111222,99999999' 
WAVCIS,ioos:station:WAVCIS:CSI09:1,2008-08-08T15:00:00Z,29.1015,-89.9782,0.0,12.17,284.0,,'11111222,11111222,99999999' 
WAVCIS,ioos:station:WAVCIS:CSI09:1,2008-08-08T16:00:00Z,29.1015,-89.9782,0.0,11.67,270.0,,'11111222,11111222,99999999' 
WAVCIS,ioos:station:WAVCIS:CSI09:1,2008-08-08T17:00:00Z,29.1015,-89.9782,0.0,11.38,281.0,,'11111222,11111222,99999999' 
WAVCIS,ioos:station:WAVCIS:CSI09:1,2008-08-08T18:00:00Z,29.1015,-89.9782,0.0,9.07,277.0,,'11111222,11111222,99999999' 
WAVCIS,ioos:station:WAVCIS:CSI09:1,2008-08-08T19:00:00Z,29.1015,-89.9782,0.0,5.588,300.0,,'11111222,11111222,99999999' 
WAVCIS,ioos:station:WAVCIS:CSI09:1,2008-08-08T20:00:00Z,29.1015,-89.9782,0.0,8.93,310.0,,'11111222,11111222,99999999' 
WAVCIS,ioos:station:WAVCIS:CSI09:1,2008-08-08T21:00:00Z,29.1015,-89.9782,0.0,8.73,309.0,,'11111222,11111222,99999999' 
WAVCIS,ioos:station:WAVCIS:CSI09:1,2008-08-08T22:00:00Z,29.1015,-89.9782,0.0,7.99,301.0,,'11111222,11111222,99999999' 
WAVCIS,ioos:station:WAVCIS:CSI09:1,2008-08-08T23:00:00Z,29.1015,-89.9782,0.0,5.473,295.0,,'11111222,11111222,99999999' 
WAVCIS,ioos:station:WAVCIS:CSI09:1,2008-08-09T00:00:00Z,29.1015,-89.9782,0.0,5.215,325.0,,'11111222,11111222,99999999' 
WAVCIS,ioos:station:WAVCIS:CSI09:1,2008-08-09T01:00:00Z,29.1015,-89.9782,0.0,4.257,339.0,,'11111222,11111222,99999999' 
WAVCIS,ioos:station:WAVCIS:CSI09:1,2008-08-09T02:00:00Z,29.1015,-89.9782,0.0,5.27,348.0,,'11111222,11111222,99999999' 
WAVCIS,ioos:station:WAVCIS:CSI09:1,2008-08-09T03:00:00Z,29.1015,-89.9782,0.0,4.418,333.0,,'11111222,11111222,99999999' 
WAVCIS,ioos:station:WAVCIS:CSI09:1,2008-08-09T04:00:00Z,29.1015,-89.9782,0.0,3.064,318.0,,'11111222,11111222,99999999' 
WAVCIS,ioos:station:WAVCIS:CSI09:1,2008-08-09T05:00:00Z,29.1015,-89.9782,0.0,0.873,228.0,,'11111222,11111222,99999999' 
WAVCIS,ioos:station:WAVCIS:CSI09:1,2008-08-09T06:00:00Z,29.1015,-89.9782,0.0,2.546,243.0,,'11111222,11111222,99999999' 